Atqasuk Edward Burnell Sr Mem, AK

9:12 PM AKDT on April 28, 2017 (GMT -0800)
Atqasuk Edward Burnell Sr Mem

Weather History for PATQ - April, 2014

Change the Weather History Date:

Tuesday, April 22, 2014

  Actual Average (PABR) Record (PABR)
Temperature  
Mean Temperature 13 °F -  
Max Temperature 23 °F 10 °F 36 °F (1931)
Min Temperature 4 °F -3 °F -30 °F (1924)
Degree Days  
Heating Degree Days 52    
Moisture  
Dew Point 11 °F    
Average Humidity 89    
Maximum Humidity 100    
Minimum Humidity 79    
Precipitation  
Precipitation 0.00 in - - ()
Sea Level Pressure  
Sea Level Pressure 29.96 in    
Wind  
Wind Speed 12 mph (East)    
Max Wind Speed 18 mph    
Max Gust Speed -    
Visibility 9 miles    
Events Snow    
Averages and records for this station are not official NWS values.
T = Trace of Precipitation, MM = Missing Value Source: NWS Daily Summary

Daily Weather History Graph

Daily Weather History Graph

Search for Another Location

Airport or City:

Trip Planner

Search our weather history database for the weather conditions in past years. The results will help you decide how hot, cold, wet, or windy it might be!

Date:

Astronomy

Apr. 22, 2014 Rise Set
Actual Time 5:43 AM AKDT 11:16 PM AKDT
Civil Twilight 3:52 AM AKDT 1:14 AM AKDT
Nautical Twilight Sun does not set Sun does not set
Astronomical Twilight Sun does not set Sun does not set
Moon 5:50 AM AKDT (4/22) 12:27 PM AKDT (4/22)
Length of Visible Light 21h 21m
Length of Day
17h 33m
Last Quarter, 44% of the Moon is Illuminated
Apr 22
Last Quarter
Apr 28
New
May 6
First Quarter
May 14
Full
May 21
Last Quarter

Hourly Weather History & Observations

Time (AKDT) Temp. Windchill Dew Point Humidity Pressure Visibility Wind Dir Wind Speed Gust Speed Precip Events Conditions
12:13 AM 6.8 °F -11.8 °F 3.2 °F 85% 30.01 in 2.5 mi East 17.3 mph - 0.00 in Snow Light Snow
12:29 AM 6.8 °F -11.8 °F 3.2 °F 85% 30.01 in 3.0 mi East 17.3 mph - 0.00 in Snow Light Snow
12:56 AM 6.8 °F -11.8 °F 3.2 °F 85% 30.00 in 4.0 mi East 17.3 mph - N/A Snow Light Snow
1:56 AM 7.2 °F -10.8 °F 4.1 °F 87% 30.02 in 3.0 mi East 16.1 mph - 0.00 in Snow Light Snow
2:56 AM 7.2 °F -11.9 °F 4.1 °F 87% 30.01 in 6.0 mi East 18.4 mph - 0.00 in Snow Light Snow
3:56 AM 6.1 °F -12.8 °F 3.0 °F 87% 30.00 in 10.0 mi East 17.3 mph - 0.00 in Snow Light Snow
4:56 AM 5.0 °F -13.6 °F 1.0 °F 84% 29.99 in 10.0 mi East 16.1 mph - 0.00 in Snow Light Snow
5:56 AM 5.0 °F -11.6 °F 1.0 °F 84% 29.99 in 10.0 mi ESE 12.7 mph - 0.00 in   Scattered Clouds
6:56 AM 4.1 °F -12.7 °F 1.0 °F 87% 29.97 in 10.0 mi East 12.7 mph - N/A   Clear
7:56 AM 4.1 °F -11.1 °F 0.1 °F 84% 29.97 in 10.0 mi ESE 10.4 mph - N/A   Clear
8:56 AM 5.0 °F -9.1 °F 1.0 °F 84% 29.97 in 10.0 mi East 9.2 mph - N/A   Clear
9:56 AM 5.0 °F -10.0 °F 1.0 °F 84% 29.96 in 10.0 mi East 10.4 mph - N/A   Clear
10:56 AM 7.2 °F -6.4 °F 3.0 °F 83% 29.96 in 10.0 mi ESE 9.2 mph - N/A   Clear
11:56 AM 9.1 °F -1.9 °F 5.0 °F 83% 29.96 in 10.0 mi East 6.9 mph - N/A   Clear
12:56 PM 12.2 °F -0.2 °F 8.6 °F 85% 29.95 in 10.0 mi ESE 9.2 mph - N/A   Mostly Cloudy
1:49 PM 15.8 °F 6.1 °F 10.4 °F 79% 29.94 in 2.5 mi ESE 6.9 mph - 0.00 in Snow Light Snow
1:56 PM 15.1 °F 5.2 °F 12.0 °F 88% 29.96 in 2.5 mi East 6.9 mph - 0.00 in Snow Light Snow
2:03 PM 15.8 °F 6.1 °F 12.2 °F 86% 29.94 in 10.0 mi ENE 6.9 mph - 0.00 in Snow Light Snow
2:39 PM 15.8 °F 5.1 °F 14.0 °F 93% 29.94 in 10.0 mi East 8.1 mph - 0.00 in   Overcast
2:44 PM 15.8 °F 4.2 °F 14.0 °F 93% 29.94 in 10.0 mi East 9.2 mph - 0.00 in   Overcast
2:56 PM 17.1 °F 6.6 °F 14.0 °F 88% 29.96 in 10.0 mi East 8.1 mph - 0.00 in Snow Light Snow
3:56 PM 18.1 °F 7.1 °F 15.1 °F 88% 29.95 in 10.0 mi East 9.2 mph - 0.00 in   Overcast
4:56 PM 20.1 °F 11.3 °F 18.1 °F 92% 29.95 in 10.0 mi East 6.9 mph - N/A   Overcast
5:56 PM 22.1 °F 12.8 °F 19.0 °F 88% 29.96 in 10.0 mi East 8.1 mph - N/A   Overcast
6:56 PM 21.2 °F 13.6 °F 19.4 °F 93% 29.93 in 7.0 mi NE 5.8 mph - N/A Snow Light Snow
7:11 PM 21.2 °F 14.9 °F 19.4 °F 93% 29.94 in 9.0 mi NE 4.6 mph - 0.00 in Snow Light Snow
7:56 PM 22.1 °F 13.7 °F 20.1 °F 92% 29.96 in 10.0 mi NNE 6.9 mph - 0.00 in Snow Light Snow
8:39 PM 19.4 °F 9.5 °F 19.4 °F 100% 29.94 in 10.0 mi NE 8.1 mph - 0.00 in Snow Light Snow
8:56 PM 21.0 °F 11.4 °F 19.0 °F 92% 29.96 in 10.0 mi ENE 8.1 mph - 0.00 in   Overcast
9:29 PM 19.4 °F 10.4 °F 19.4 °F 100% 29.94 in 10.0 mi NE 6.9 mph - N/A   Overcast
9:45 PM 19.4 °F 10.4 °F 19.4 °F 100% 29.94 in 10.0 mi NE 6.9 mph - N/A   Overcast
9:56 PM 19.4 °F 11.5 °F 19.4 °F 100% 29.94 in 10.0 mi NE 5.8 mph - N/A   Overcast
10:16 PM 19.4 °F 12.8 °F 19.4 °F 100% 29.94 in 10.0 mi NE 4.6 mph - N/A   Overcast
10:56 PM 20.1 °F 15.2 °F 19.0 °F 96% 29.97 in 10.0 mi NE 3.5 mph - N/A   Overcast
11:56 PM 20.1 °F 13.6 °F 18.1 °F 92% 29.98 in 10.0 mi North 4.6 mph - N/A   Overcast